Location: Newark
(43.0000°N, 1.6781°W)
Time: 09:57:39
(UTC+00:00)

XW-2C - Visible Passes

Search period start: 30 November 2022 00:00
Search period end: 10 December 2022 00:00
Orbit: 493 x 512 km, 97.5° (Epoch: 29 November)

Date Brightness Start Highest point End Pass type
(mag) Time Alt. Az. Time Alt. Az. Time Alt. Az.
30 Nov ? 05:53:20 10° NNE 05:56:46 38° E 06:00:10 10° SSE visible
30 Nov ? 18:06:24 10° SSW 18:09:34 27° W 18:12:45 10° NW visible
01 Dec ? 05:34:57 10° NE 05:37:53 23° E 05:40:47 10° SSE visible
01 Dec ? 17:47:08 10° S 17:50:42 46° W 17:54:16 10° NNW visible
02 Dec ? 05:17:00 10° ENE 05:18:55 14° E 05:20:51 10° SE visible
02 Dec ? 17:28:10 10° S 17:31:51 82° WSW 17:35:33 10° NNW visible
03 Dec ? 06:30:31 10° N 06:34:08 68° WNW 06:37:44 10° SSW visible
03 Dec ? 17:09:27 10° SSE 17:13:04 56° ENE 17:16:41 10° N visible
04 Dec ? 06:11:41 10° NNE 06:15:19 68° ESE 06:18:56 10° S visible
04 Dec ? 18:25:46 10° SW 18:28:11 17° W 18:30:36 10° NW visible
05 Dec ? 05:53:00 10° NNE 05:56:26 37° E 05:59:50 10° SSE visible
05 Dec ? 18:06:03 10° SSW 18:09:13 27° W 18:12:24 10° NW visible
06 Dec ? 05:34:34 10° NE 05:37:29 22° E 05:40:24 10° SSE visible
06 Dec ? 17:46:45 10° S 17:50:17 46° W 17:53:51 10° NNW visible
07 Dec ? 05:16:36 10° ENE 05:18:29 14° E 05:20:22 10° ESE visible
07 Dec ? 06:49:02 10° N 06:52:28 39° WNW 06:55:52 10° SW visible
07 Dec ? 17:27:43 10° SSE 17:31:24 84° WSW 17:35:05 10° NNW visible
08 Dec ? 06:30:01 10° N 06:33:39 69° WNW 06:37:16 10° SSW visible
08 Dec ? 17:08:58 10° SSE 17:12:33 55° ENE 17:16:09 10° N visible
09 Dec ? 06:11:08 10° NNE 06:14:46 66° E 06:18:24 10° S visible
09 Dec ? 18:25:11 10° SW 18:27:37 17° W 18:30:03 10° NW visible
